McConnell AFB, KS

7:54 AM CDT on July 17, 2019 (GMT -0500)
McConnell Air Force Base

Weather History for KIAB - May, 2019

Change the Weather History Date:

Tuesday, May 21, 2019

  Actual Average Record
Temperature  
Mean Temperature 62 °F -  
Max Temperature 71 °F 75 °F 96 °F (2005)
Min Temperature 53 °F 55 °F 43 °F (2017)
Degree Days  
Heating Degree Days 4    
Growing Degree Days 12 (Base 50)    
Moisture  
Dew Point 56 °F    
Average Humidity 89    
Maximum Humidity 100    
Minimum Humidity 41    
Precipitation  
Precipitation 1.34 in - - ()
Sea Level Pressure  
Sea Level Pressure 29.51 in    
Wind  
Wind Speed 16 mph (ESE)    
Max Wind Speed 31 mph    
Max Gust Speed 45 mph    
Visibility 9 miles    
Events Rain , Thunderstorm    
Averages and records for this station are not official NWS values.
T = Trace of Precipitation, MM = Missing Value Source: NWS Daily Summary

Daily Weather History Graph

Daily Weather History Graph

Search for Another Location

Airport or City:

Astronomy

May. 21, 2019 Rise Set
Actual Time 6:15 AM CDT 8:36 PM CDT
Civil Twilight 5:45 AM CDT 9:06 PM CDT
Nautical Twilight 5:08 AM CDT 9:43 PM CDT
Astronomical Twilight 4:28 AM CDT 10:23 PM CDT
Moon 11:32 PM CDT (5/21) 8:33 AM CDT (5/21)
Length of Visible Light 15h 21m
Length of Day
14h 21m
Waning Gibbous, 91% of the Moon is Illuminated
May 21
Waning Gibbous
May 26
Last Quarter
Jun 3
New
Jun 10
First Quarter
Jun 17
Full

Hourly Weather History & Observations

Time (CDT) Temp. Dew Point Humidity Pressure Visibility Wind Dir Wind Speed Gust Speed Precip Events Conditions
12:04 AM 53.6 °F 53.6 °F 100% 29.68 in 10.0 mi East 10.4 mph - N/A Rain Light Rain
12:26 AM 53.6 °F 51.8 °F 94% 29.67 in 10.0 mi ENE 13.8 mph - N/A Rain , Thunderstorm Light Rain
12:28 AM 53.6 °F 51.8 °F 94% 29.67 in 10.0 mi ENE 12.7 mph - N/A Rain , Thunderstorm Light Thunderstorms and Rain
12:35 AM 53.6 °F 51.8 °F 94% 29.68 in 10.0 mi ENE 11.5 mph 19.6 mph N/A Rain , Thunderstorm Light Thunderstorms and Rain
12:40 AM 53.6 °F 51.8 °F 94% 29.69 in 10.0 mi East 15.0 mph - N/A Rain , Thunderstorm Light Thunderstorms and Rain
12:43 AM 53.6 °F 51.8 °F 94% 29.69 in 10.0 mi East 16.1 mph - N/A Rain Light Rain
12:56 AM 53.2 °F 52.3 °F 97% 29.61 in 10.0 mi East 26.5 mph 32.2 mph 0.06 in Rain Light Rain
1:14 AM 53.6 °F 53.6 °F 100% 29.64 in 10.0 mi SE 26.5 mph 35.7 mph N/A Rain , Thunderstorm Light Rain
1:16 AM 53.6 °F 53.6 °F 100% 29.65 in 10.0 mi SE 26.5 mph 35.7 mph N/A Rain , Thunderstorm Light Rain
1:17 AM 53.6 °F 53.6 °F 100% 29.65 in 10.0 mi SE 24.2 mph 35.7 mph N/A Rain , Thunderstorm Light Rain
1:31 AM 53.6 °F 53.6 °F 100% 29.63 in 10.0 mi ESE 21.9 mph 33.4 mph N/A Rain Light Rain
1:36 AM 53.6 °F 53.6 °F 100% 29.61 in 10.0 mi ESE 26.5 mph 32.2 mph N/A Rain Light Rain
1:56 AM 53.6 °F 53.1 °F 98% 29.59 in 10.0 mi ESE 21.9 mph 34.5 mph 0.04 in Rain Light Rain
2:07 AM 53.6 °F 53.6 °F 100% 29.57 in 10.0 mi ESE 26.5 mph 36.8 mph N/A Rain Light Rain
2:19 AM 53.6 °F 53.6 °F 100% 29.56 in 9.0 mi ESE 31.1 mph 44.9 mph N/A Rain Light Rain
2:56 AM 54.7 °F 54.1 °F 98% 29.60 in 10.0 mi SE 17.3 mph 29.9 mph 0.04 in Rain Light Rain
2:58 AM 55.4 °F 53.6 °F 94% 29.60 in 10.0 mi SSE 18.4 mph 29.9 mph N/A Rain Light Rain
3:07 AM 55.4 °F 53.6 °F 94% 29.62 in 10.0 mi SE 17.3 mph 24.2 mph N/A Rain Light Rain
3:18 AM 55.4 °F 55.4 °F 100% 29.65 in 9.0 mi SSE 13.8 mph - N/A Rain Light Rain
3:56 AM 54.9 °F 54.5 °F 99% 29.62 in 5.0 mi ESE 13.8 mph 21.9 mph 0.18 in Rain Light Rain
4:13 AM 55.4 °F 55.4 °F 100% 29.63 in 5.0 mi ESE 18.4 mph 25.3 mph N/A Rain , Thunderstorm Thunderstorms and Rain
4:32 AM 55.4 °F 55.4 °F 100% 29.62 in 5.0 mi ESE 17.3 mph - N/A Rain Light Rain
4:43 AM 55.4 °F 55.4 °F 100% 29.62 in 5.0 mi SE 11.5 mph - N/A Rain , Thunderstorm Thunderstorms and Rain
4:55 AM 55.4 °F 55.4 °F 100% 29.62 in 4.0 mi SE 11.5 mph - N/A Rain , Thunderstorm Heavy Thunderstorms and Rain
4:56 AM 55.2 °F 54.9 °F 99% 29.62 in 4.0 mi SE 10.4 mph - 0.29 in Rain , Thunderstorm Heavy Thunderstorms and Rain
4:58 AM 55.4 °F 55.4 °F 100% 29.62 in 3.0 mi SE 10.4 mph - N/A Rain Rain
5:30 AM 55.4 °F 55.4 °F 100% 29.62 in 6.0 mi SE 9.2 mph - N/A Rain , Thunderstorm Thunderstorms and Rain
5:41 AM 57.2 °F 57.2 °F 100% 29.62 in 5.0 mi ESE 11.5 mph - N/A Rain , Thunderstorm Thunderstorms and Rain
5:56 AM 57.0 °F 56.7 °F 99% 29.60 in 7.0 mi ESE 11.5 mph - 0.26 in Rain , Thunderstorm Light Thunderstorms and Rain
5:58 AM 57.2 °F 57.2 °F 100% 29.60 in 7.0 mi ESE 12.7 mph - N/A Rain Light Rain
6:22 AM 57.2 °F 57.2 °F 100% 29.60 in 6.0 mi ESE 12.7 mph 21.9 mph N/A Rain Rain
6:41 AM 57.2 °F 57.2 °F 100% 29.60 in 8.0 mi ESE 8.1 mph - N/A Rain Light Rain
6:56 AM 57.7 °F 57.4 °F 99% 29.60 in 6.0 mi East 8.1 mph - 0.19 in Rain Light Rain
6:58 AM 57.2 °F 57.2 °F 100% 29.58 in 6.0 mi East 9.2 mph - N/A Rain Light Rain
7:19 AM 57.2 °F 57.2 °F 100% 29.57 in 5.0 mi ENE 13.8 mph - N/A Rain Rain
7:26 AM 57.2 °F 57.2 °F 100% 29.55 in 6.0 mi ENE 16.1 mph - N/A Rain Light Rain
7:40 AM 59.0 °F 57.2 °F 94% 29.53 in 6.0 mi East 13.8 mph 21.9 mph N/A   Haze
7:41 AM 59.0 °F 57.2 °F 94% 29.53 in 6.0 mi East 13.8 mph 21.9 mph N/A Rain Rain
7:56 AM 58.3 °F 57.9 °F 99% 29.50 in 9.0 mi ENE 18.4 mph 24.2 mph 0.13 in Rain Light Rain
8:35 AM 59.0 °F 59.0 °F 100% 29.46 in 10.0 mi East 18.4 mph - N/A   Mostly Cloudy
8:56 AM 59.9 °F 57.6 °F 92% 29.44 in 10.0 mi East 17.3 mph - 0.04 in   Scattered Clouds
9:56 AM 61.2 °F 57.6 °F 88% 29.43 in 10.0 mi ESE 18.4 mph 23.0 mph N/A   Overcast
10:30 AM 62.6 °F 57.2 °F 82% 29.44 in 10.0 mi SE 8.1 mph - N/A   Overcast
10:38 AM 62.6 °F 57.2 °F 82% 29.44 in 10.0 mi East 11.5 mph - N/A Rain Light Rain
10:56 AM 61.2 °F 57.9 °F 89% 29.45 in 9.0 mi East 12.7 mph - 0.03 in Rain Light Rain
10:58 AM 60.8 °F 59.0 °F 94% 29.45 in 10.0 mi East 15.0 mph - N/A Rain Light Rain
11:00 AM 60.8 °F 57.2 °F 88% 29.45 in 10.0 mi East 13.8 mph - N/A   Overcast
11:04 AM 60.8 °F 57.2 °F 88% 29.45 in 10.0 mi East 12.7 mph - N/A   Overcast
11:05 AM 60.8 °F 57.2 °F 88% 29.45 in 9.0 mi East 12.7 mph - N/A Rain Light Rain
11:06 AM 60.8 °F 57.2 °F 88% 29.45 in 8.0 mi East 12.7 mph - N/A Rain Light Rain
11:08 AM 60.8 °F 59.0 °F 94% 29.45 in 5.0 mi East 12.7 mph - N/A Rain Light Rain
11:09 AM 60.8 °F 59.0 °F 94% 29.45 in 6.0 mi East 13.8 mph - N/A Rain Light Rain
11:10 AM 60.8 °F 59.0 °F 94% 29.45 in 6.0 mi East 15.0 mph - N/A Rain Light Rain
11:28 AM 60.8 °F 59.0 °F 94% 29.45 in 5.0 mi East 16.1 mph - N/A Rain Light Rain
11:33 AM 60.8 °F 59.0 °F 94% 29.45 in 6.0 mi East 15.0 mph - N/A Rain Light Rain
11:43 AM 60.8 °F 60.8 °F 100% 29.42 in 8.0 mi East 15.0 mph - N/A Rain Light Rain
11:51 AM 60.8 °F 60.8 °F 100% 29.41 in 10.0 mi East 16.1 mph 23.0 mph N/A   Overcast
11:56 AM 61.9 °F 60.4 °F 95% 29.39 in 10.0 mi East 15.0 mph 23.0 mph 0.02 in   Overcast
12:56 PM 62.1 °F 60.3 °F 94% 29.42 in 10.0 mi East 20.7 mph 26.5 mph 0.02 in   Overcast
1:36 PM 64.4 °F 62.6 °F 94% 29.38 in 10.0 mi ESE 21.9 mph 27.6 mph N/A   Mostly Cloudy
1:38 PM 64.4 °F 62.6 °F 94% 29.38 in 10.0 mi ESE 21.9 mph 27.6 mph N/A   Mostly Cloudy
1:46 PM 64.4 °F 60.8 °F 88% 29.37 in 10.0 mi ESE 19.6 mph 31.1 mph N/A   Mostly Cloudy
1:48 PM 64.4 °F 60.8 °F 88% 29.37 in 10.0 mi ESE 20.7 mph 31.1 mph N/A   Mostly Cloudy
1:50 PM 64.4 °F 60.8 °F 88% 29.37 in 10.0 mi ESE 20.7 mph 31.1 mph N/A   Mostly Cloudy
1:56 PM 65.3 °F 61.9 °F 89% 29.36 in 10.0 mi ESE 20.7 mph 26.5 mph 0.04 in   Overcast
2:05 PM 68.0 °F 62.6 °F 83% 29.35 in 10.0 mi ESE 24.2 mph 32.2 mph N/A   Mostly Cloudy
2:12 PM 68.0 °F 60.8 °F 78% 29.36 in 10.0 mi ESE 21.9 mph 31.1 mph N/A   Mostly Cloudy
2:17 PM 68.0 °F 62.6 °F 83% 29.36 in 10.0 mi ESE 23.0 mph 31.1 mph N/A   Mostly Cloudy
2:20 PM 68.0 °F 62.6 °F 83% 29.36 in 10.0 mi ESE 23.0 mph 29.9 mph N/A   Mostly Cloudy
2:21 PM 68.0 °F 62.6 °F 83% 29.36 in 10.0 mi ESE 24.2 mph 29.9 mph N/A   Mostly Cloudy
2:25 PM 69.8 °F 60.8 °F 73% 29.36 in 10.0 mi SE 24.2 mph 31.1 mph N/A   Mostly Cloudy
2:56 PM 70.5 °F 55.9 °F 60% 29.35 in 10.0 mi SSE 24.2 mph 38.0 mph N/A   Mostly Cloudy
3:56 PM 70.3 °F 48.0 °F 45% 29.34 in 10.0 mi SSE 31.1 mph 40.3 mph N/A   Mostly Cloudy
4:56 PM 70.7 °F 45.9 °F 41% 29.34 in 10.0 mi SSE 29.9 mph 39.1 mph N/A   Clear
5:25 PM 68.0 °F 46.4 °F 46% 29.34 in 10.0 mi SSE 25.3 mph 31.1 mph N/A Rain Light Rain
5:37 PM 68.0 °F 44.6 °F 43% 29.34 in 10.0 mi South 23.0 mph 36.8 mph N/A   Mostly Cloudy
6:56 PM 66.7 °F 48.0 °F 51% 29.34 in 10.0 mi SSE 15.0 mph 23.0 mph N/A   Overcast
8:56 PM 64.6 °F 46.0 °F 51% 29.41 in 10.0 mi South 15.0 mph 24.2 mph N/A   Clear
9:56 PM 60.4 °F 47.8 °F 63% 29.47 in 10.0 mi South 11.5 mph - N/A   Clear
10:56 PM 58.1 °F 49.1 °F 72% 29.50 in 10.0 mi South 10.4 mph - N/A   Overcast
11:56 PM 59.7 °F 47.8 °F 65% 29.53 in 10.0 mi SW 12.7 mph - N/A   Overcast